Home   Weather   Monterey   Past weeks

Flag for USA Past Weather in Monterey, California, USA — Yesterday and Last 2 Weeks

Now
40 °F

Clear.


Feels Like: 36 °F
Forecast: 43 / 54 °F
Wind: 6 mph from East

Location: Monterey Peninsula Airport

Current Time: Dec 7, 2016 at 12:49:38 am

Latest Report: Dec 6, 2016 at 11:54 pm


Visibility: 10 mi

Pressure: 30.18 "Hg

Humidity: 89%

Dew Point: 37 °F

Location of MontereyLocation

Past Weather in Monterey — Graph

°F

Monterey Temperature Yesterday

Maximum temperature yesterday: 54 °F (at 1:54 pm)
Minimum temperature yesterday: 44 °F (at 10:54 pm)
Average temperature yesterday: 49 °F

High & Low Weather Summary for the Past Weeks

 TemperatureHumidityPressure
High63 °F (Nov 24, 1:54 pm)100% (Nov 23, 5:54 am)30.40 "Hg (Nov 23, 5:54 am)
Low38 °F (Nov 24, 6:54 am)27% (Dec 2, 2:54 pm)29.89 "Hg (Nov 26, 4:54 am)
Average50 °F76%30.16 "Hg
* Reported Nov 21 10:54 pm — Dec 6 10:54 pm, Monterey, Weather by CustomWeather, © 2016

Note: Actual official high and low records may vary slightly from our data, if they occured in-between our weather recording intervals... More about our weather records

Advertising

Monterey Weather History for the Previous 24 Hours

Scroll right to see more
 ConditionsComfort  
Time TempWeatherWind HumidityBarometerVisibility
10:54 pm
Tue, Dec 6
44 °FClear.No wind82%30.19 "Hg10 mi
9:54 pm49 °FClear.6 mph71%30.17 "Hg10 mi
8:54 pm50 °FClear.8 mph68%30.16 "Hg10 mi
7:54 pm49 °FClear.8 mph74%30.15 "Hg10 mi
6:54 pm50 °FClear.7 mph71%30.15 "Hg10 mi
5:54 pm50 °FClear.7 mph77%30.14 "Hg10 mi
4:54 pm51 °FClear.8 mph74%30.13 "Hg10 mi
3:54 pm52 °FSunny.8 mph69%30.13 "Hg10 mi
2:54 pm54 °FSunny.8 mph64%30.12 "Hg10 mi
1:54 pm54 °FSunny.8 mph64%30.12 "Hg10 mi
12:54 pm53 °FSunny.6 mph56%30.13 "Hg10 mi
11:54 am53 °FSunny.3 mph55%30.14 "Hg10 mi
10:54 am51 °FSunny.5 mph71%30.16 "Hg10 mi
9:54 am50 °FPassing clouds.6 mph77%30.16 "Hg10 mi
8:54 am49 °FSunny.3 mph77%30.15 "Hg10 mi
7:54 am45 °FSunny.8 mph82%30.11 "Hg10 mi
6:54 am46 °FPassing clouds.7 mph83%30.11 "Hg10 mi
5:54 am45 °FPassing clouds.7 mph86%30.10 "Hg10 mi
4:54 am45 °FClear.3 mph90%30.08 "Hg10 mi
3:54 am48 °FPassing clouds.6 mph83%30.08 "Hg10 mi
2:54 am48 °FPassing clouds.3 mph83%30.09 "Hg10 mi
1:54 am49 °FPassing clouds.6 mph86%30.09 "Hg10 mi
12:54 am49 °FPassing clouds.6 mph86%30.09 "Hg10 mi
Weather by CustomWeather, © 2016

See weather overviewHow to use our weather pages